KN4CCE-13 Weather Reports


time (UTC)temp
F
wind
direction
speed
knots
gust
knots
rain 1hr
in
rain 24hr
in
rain mn
in
humidity
%
barometer
mb
20260505101509 56 148 0.0 0.0 0.00 0.00 0.00 78 1016.2
20260505100005 56 148 0.0 0.0 0.00 0.00 0.00 77 1016.2
20260505094503 57 148 0.0 0.0 0.00 0.00 0.00 77 1016.0
20260505093009 56 148 0.0 0.0 0.00 0.00 0.00 77 1015.9
20260505091511 57 148 0.0 0.0 0.00 0.00 0.00 77 1015.8
20260505090013 57 148 0.0 0.0 0.00 0.00 0.00 76 1015.8
20260505084517 57 148 0.0 0.0 0.00 0.00 0.00 76 1015.7
20260505083013 58 148 0.0 0.0 0.00 0.00 0.00 74 1015.6
20260505081504 58 148 0.0 0.0 0.00 0.00 0.00 73 1015.6
20260505080028 59 148 0.0 0.0 0.00 0.00 0.00 73 1015.6
20260505074515 59 148 0.0 0.0 0.00 0.00 0.00 72 1015.5
20260505073017 59 148 0.0 0.0 0.00 0.00 0.00 72 1015.4
20260505071507 60 156 0.0 0.0 0.00 0.00 0.00 71 1015.3
20260505070008 60 159 0.0 0.0 0.00 0.00 0.00 71 1015.3
20260505064506 61 105 0.0 0.0 0.00 0.00 0.00 70 1015.3
20260505063018 60 103 0.0 0.0 0.00 0.00 0.00 71 1015.3
20260505061534 61 115 0.0 0.0 0.00 0.00 0.00 70 1015.2
20260505060018 61 116 0.0 0.0 0.00 0.00 0.00 70 1015.3
20260505054511 62 92 0.0 0.0 0.00 0.00 0.00 69 1015.3
20260505053011 62 95 0.0 0.0 0.00 0.00 0.00 69 1015.4
20260505051509 62 94 0.0 0.0 0.00 0.00 0.00 69 1015.5
20260505041526 63 115 0.0 0.0 0.00 0.00 0.00 68 1015.4
20260505040016 64 98 0.0 0.0 0.00 0.00 0.00 66 1015.4
20260505034510 64 102 0.0 0.0 0.00 0.00 0.00 65 1015.4
20260505033028 65 84 0.0 0.9 0.00 0.00 0.00 65 1015.4
20260505031514 65 49 0.0 2.6 0.00 0.00 0.00 64 1015.3
20260505030018 66 61 0.0 0.9 0.00 0.00 0.00 62 1015.4
20260505024535 66 105 0.0 0.9 0.00 0.00 0.00 60 1015.4
20260505023017 67 113 0.0 0.9 0.00 0.00 0.00 56 1015.4
20260505021510 68 129 0.0 0.0 0.00 0.00 0.00 51 1015.2
20260505020018 68 139 0.0 0.0 0.00 0.00 0.00 48 1015.1
20260505014520 69 104 0.0 0.0 0.00 0.00 0.00 47 1014.8
20260505013027 69 119 0.0 1.7 0.00 0.00 0.00 47 1014.7
20260505011504 70 125 0.0 0.0 0.00 0.00 0.00 46 1014.5
20260505010015 70 90 0.0 0.0 0.00 0.00 0.00 45 1014.2
20260505004517 71 119 0.0 0.0 0.00 0.00 0.00 45 1013.9
20260505003004 71 173 0.0 0.9 0.00 0.00 0.00 42 1013.7
20260505001506 72 106 0.0 0.0 0.00 0.00 0.00 40 1013.6
20260505000022 73 117 0.0 0.0 0.00 0.00 0.00 39 1013.6
20260504234507 74 103 0.0 0.0 0.00 0.00 0.00 37 1013.7
20260504233023 75 314 0.0 0.0 0.00 0.00 0.00 36 1013.4
20260504231510 74 312 0.0 0.0 0.00 0.00 0.00 38 1013.2
20260504230006 76 312 0.0 0.0 0.00 0.00 0.00 39 1013.2
20260504224511 77 309 0.0 0.0 0.00 0.00 0.00 32 1013.3
20260504223007 77 275 0.0 0.0 0.00 0.00 0.00 33 1013.3
20260504221506 78 105 0.0 0.0 0.00 0.00 0.00 35 1013.3
20260504220011 78 100 0.0 0.0 0.00 0.00 0.00 32 1013.3
20260504214510 78 294 0.0 0.0 0.00 0.00 0.00 31 1013.3
20260504213016 78 75 0.0 0.0 0.00 0.00 0.00 33 1013.5
20260504211515 78 105 0.0 0.9 0.00 0.00 0.00 33 1013.5
20260504210009 78 254 0.0 0.0 0.00 0.00 0.00 33 1013.5
20260504204508 79 293 0.0 0.0 0.00 0.00 0.00 34 1013.5
20260504203020 79 107 0.0 0.0 0.00 0.00 0.00 33 1013.6
20260504201517 79 109 0.0 0.0 0.00 0.00 0.00 32 1013.7
20260504200021 78 288 0.0 0.0 0.00 0.00 0.00 34 1013.9
20260504194531 79 271 0.0 0.0 0.00 0.00 0.00 34 1014.1
20260504193015 78 271 0.0 0.0 0.00 0.00 0.00 34 1014.4
20260504191509 78 271 0.0 0.0 0.00 0.00 0.00 33 1014.3
20260504190021 78 136 0.0 0.0 0.00 0.00 0.00 32 1014.6
20260504184525 77 290 0.0 0.0 0.00 0.00 0.00 34 1014.7
20260504183024 77 282 0.0 0.0 0.00 0.00 0.00 33 1015.1
20260504181511 77 104 0.0 0.0 0.00 0.00 0.00 34 1015.1
20260504180019 76 65 0.0 0.0 0.00 0.00 0.00 37 1015.2
20260504174514 74 280 0.0 0.0 0.00 0.00 0.00 38 1015.4
20260504173022 75 279 0.0 0.0 0.00 0.00 0.00 39 1015.4
20260504171526 74 287 0.0 0.0 0.00 0.00 0.00 42 1015.9